Time,TemperatureF,DewpointF,PressureIn,WindDirection,WindDirectionDegrees,WindSpeedMPH,WindSpeedGustMPH,Humidity,HourlyPrecipIn,Conditions,Clouds,dailyrainin,SoftwareType,DateUTC
2013-01-12 00:05:00,39.7,37.5,30.19,North,0,0.0,0.0,93,-99.99,,,-99.99,PWS SA v1.10,2013-01-12 05:05:00,
2013-01-12 00:10:00,39.5,37.4,30.18,North,0,0.0,0.0,93,-99.99,,,-99.99,PWS SA v1.10,2013-01-12 05:10:00,
2013-01-12 00:15:00,39.4,37.4,30.17,North,0,0.0,0.0,93,-99.99,,,-99.99,PWS SA v1.10,2013-01-12 05:15:00,
2013-01-12 00:20:00,39.4,37.3,30.17,North,0,0.0,0.0,93,-99.99,,,-99.99,PWS SA v1.10,2013-01-12 05:20:00,
2013-01-12 00:25:00,39.4,37.3,30.17,North,0,0.0,0.0,93,-99.99,,,-99.99,PWS SA v1.10,2013-01-12 05:25:00,
2013-01-12 00:30:00,39.4,37.4,30.17,North,0,0.0,0.0,93,-99.99,,,-99.99,PWS SA v1.10,2013-01-12 05:30:00,
2013-01-12 00:35:00,39.3,37.4,30.17,North,0,0.0,0.0,93,-99.99,,,-99.99,PWS SA v1.10,2013-01-12 05:35:00,
2013-01-12 00:40:00,39.4,37.3,30.16,North,0,0.0,0.0,93,-99.99,,,-99.99,PWS SA v1.10,2013-01-12 05:40:00,
2013-01-12 00:45:00,39.4,37.5,30.16,North,0,0.0,0.0,94,-99.99,,,-99.99,PWS SA v1.10,2013-01-12 05:45:00,
2013-01-12 00:55:00,39.3,37.6,30.15,North,0,0.0,0.0,94,-99.99,,,-99.99,PWS SA v1.10,2013-01-12 05:55:00,
2013-01-12 01:00:00,39.5,37.5,30.15,North,0,0.0,0.0,94,-99.99,,,-99.99,PWS SA v1.10,2013-01-12 06:00:00,
2013-01-12 01:05:00,39.5,38.0,30.15,North,0,0.0,0.0,95,-99.99,,,-99.99,PWS SA v1.10,2013-01-12 06:05:00,
2013-01-12 01:10:00,39.1,37.5,30.15,North,0,0.0,0.0,94,-99.99,,,-99.99,PWS SA v1.10,2013-01-12 06:10:00,
2013-01-12 01:20:00,39.4,38.2,30.15,North,0,0.0,0.0,95,-99.99,,,-99.99,PWS SA v1.10,2013-01-12 06:20:00,
2013-01-12 01:25:00,39.7,38.2,30.15,North,0,0.0,0.0,95,-99.99,,,-99.99,PWS SA v1.10,2013-01-12 06:25:00,
2013-01-12 01:30:00,39.3,38.1,30.15,North,0,0.0,0.0,95,-99.99,,,-99.99,PWS SA v1.10,2013-01-12 06:30:00,
2013-01-12 01:40:00,39.7,37.9,30.15,North,0,0.0,0.0,94,-99.99,,,-99.99,PWS SA v1.10,2013-01-12 06:40:00,
2013-01-12 01:50:00,39.5,37.9,30.14,North,0,0.0,0.0,94,-99.99,,,-99.99,PWS SA v1.10,2013-01-12 06:50:00,
2013-01-12 01:55:00,39.7,37.9,30.13,North,0,0.0,0.0,94,-99.99,,,-99.99,PWS SA v1.10,2013-01-12 06:55:00,
2013-01-12 02:00:00,39.7,37.9,30.14,North,0,0.0,0.0,94,-99.99,,,-99.99,PWS SA v1.10,2013-01-12 07:00:00,
2013-01-12 02:05:00,39.7,38.1,30.14,North,0,0.0,0.0,94,-99.99,,,-99.99,PWS SA v1.10,2013-01-12 07:05:00,
2013-01-12 02:10:00,39.8,38.0,30.13,North,0,0.0,0.0,94,-99.99,,,-99.99,PWS SA v1.10,2013-01-12 07:10:00,
2013-01-12 02:20:00,39.8,38.0,30.15,North,0,0.0,0.0,94,-99.99,,,-99.99,PWS SA v1.10,2013-01-12 07:20:00,
2013-01-12 02:25:00,39.9,38.2,30.14,North,0,0.0,0.0,95,-99.99,,,-99.99,PWS SA v1.10,2013-01-12 07:25:00,
2013-01-12 02:30:00,39.9,38.1,30.14,North,0,0.0,0.0,94,-99.99,,,-99.99,PWS SA v1.10,2013-01-12 07:30:00,
2013-01-12 02:35:00,39.8,38.1,30.14,North,0,0.0,0.0,94,-99.99,,,-99.99,PWS SA v1.10,2013-01-12 07:35:00,
2013-01-12 02:40:00,39.8,38.0,30.14,North,0,0.0,0.0,94,-99.99,,,-99.99,PWS SA v1.10,2013-01-12 07:40:00,
2013-01-12 02:45:00,39.8,37.9,30.14,North,0,0.0,0.0,94,-99.99,,,-99.99,PWS SA v1.10,2013-01-12 07:45:00,
2013-01-12 02:50:00,39.8,38.0,30.14,North,0,0.0,0.0,94,-99.99,,,-99.99,PWS SA v1.10,2013-01-12 07:50:00,
2013-01-12 02:55:00,39.9,38.0,30.14,North,0,0.0,0.0,94,-99.99,,,-99.99,PWS SA v1.10,2013-01-12 07:55:00,
2013-01-12 03:00:00,39.9,38.2,30.13,North,0,0.0,0.0,94,-99.99,,,-99.99,PWS SA v1.10,2013-01-12 08:00:00,
2013-01-12 03:05:00,39.8,38.0,30.13,North,0,0.0,0.0,94,-99.99,,,-99.99,PWS SA v1.10,2013-01-12 08:05:00,
2013-01-12 03:10:00,40.0,38.2,30.12,North,0,0.0,0.0,94,-99.99,,,-99.99,PWS SA v1.10,2013-01-12 08:10:00,
2013-01-12 03:20:00,39.9,38.2,30.12,North,0,0.0,0.0,94,-99.99,,,-99.99,PWS SA v1.10,2013-01-12 08:20:00,
2013-01-12 03:25:00,40.0,38.1,30.12,North,0,0.0,0.0,94,-99.99,,,-99.99,PWS SA v1.10,2013-01-12 08:25:00,
2013-01-12 03:30:00,39.9,38.3,30.12,North,0,0.0,0.0,94,-99.99,,,-99.99,PWS SA v1.10,2013-01-12 08:30:00,
2013-01-12 03:35:00,40.0,38.4,30.12,North,0,0.0,0.0,94,-99.99,,,-99.99,PWS SA v1.10,2013-01-12 08:35:00,
2013-01-12 03:40:00,40.1,38.4,30.12,North,0,0.0,0.0,94,-99.99,,,-99.99,PWS SA v1.10,2013-01-12 08:40:00,
2013-01-12 03:45:00,40.2,38.4,30.12,North,0,0.0,0.0,94,-99.99,,,-99.99,PWS SA v1.10,2013-01-12 08:45:00,
2013-01-12 03:50:00,40.2,38.5,30.11,North,0,0.0,0.0,94,-99.99,,,-99.99,PWS SA v1.10,2013-01-12 08:50:00,
2013-01-12 03:55:00,40.2,38.4,30.11,North,0,0.0,0.0,94,-99.99,,,-99.99,PWS SA v1.10,2013-01-12 08:55:00,
2013-01-12 04:00:00,40.3,38.5,30.12,North,0,0.0,0.0,94,-99.99,,,-99.99,PWS SA v1.10,2013-01-12 09:00:00,
2013-01-12 04:05:00,40.2,38.6,30.12,North,0,0.0,0.0,94,-99.99,,,-99.99,PWS SA v1.10,2013-01-12 09:05:00,
2013-01-12 04:10:00,40.2,38.3,30.12,North,0,0.0,0.0,94,-99.99,,,-99.99,PWS SA v1.10,2013-01-12 09:10:00,
2013-01-12 04:15:00,40.2,38.4,30.12,North,0,0.0,0.0,94,-99.99,,,-99.99,PWS SA v1.10,2013-01-12 09:15:00,
2013-01-12 04:25:00,40.1,38.2,30.11,North,0,0.0,0.0,94,-99.99,,,-99.99,PWS SA v1.10,2013-01-12 09:25:00,
2013-01-12 04:30:00,40.0,38.3,30.11,North,0,0.0,0.0,94,-99.99,,,-99.99,PWS SA v1.10,2013-01-12 09:30:00,
2013-01-12 04:35:00,40.1,38.5,30.11,North,0,0.0,0.0,94,-99.99,,,-99.99,PWS SA v1.10,2013-01-12 09:35:00,
2013-01-12 04:40:00,40.0,38.3,30.11,North,0,0.0,0.0,94,-99.99,,,-99.99,PWS SA v1.10,2013-01-12 09:40:00,
2013-01-12 04:45:00,40.0,38.3,30.10,North,0,0.0,0.0,94,-99.99,,,-99.99,PWS SA v1.10,2013-01-12 09:45:00,
2013-01-12 04:50:00,40.0,38.3,30.11,North,0,0.0,0.0,94,-99.99,,,-99.99,PWS SA v1.10,2013-01-12 09:50:00,
2013-01-12 04:55:00,40.0,38.2,30.12,North,0,0.0,0.0,94,-99.99,,,-99.99,PWS SA v1.10,2013-01-12 09:55:00,
2013-01-12 05:00:00,40.0,38.3,30.12,North,0,0.0,0.0,94,-99.99,,,-99.99,PWS SA v1.10,2013-01-12 10:00:00,
2013-01-12 05:05:00,39.9,38.2,30.11,North,0,0.0,0.0,94,-99.99,,,-99.99,PWS SA v1.10,2013-01-12 10:05:00,
2013-01-12 05:10:00,39.9,38.1,30.12,North,0,0.0,0.0,94,-99.99,,,-99.99,PWS SA v1.10,2013-01-12 10:10:00,
2013-01-12 05:15:00,39.9,38.0,30.11,North,0,0.0,0.0,94,-99.99,,,-99.99,PWS SA v1.10,2013-01-12 10:15:00,
2013-01-12 05:20:00,40.0,38.2,30.12,North,0,0.0,0.0,94,-99.99,,,-99.99,PWS SA v1.10,2013-01-12 10:20:00,
2013-01-12 05:25:00,40.0,38.4,30.12,North,0,0.0,0.0,94,-99.99,,,-99.99,PWS SA v1.10,2013-01-12 10:25:00,
2013-01-12 05:30:00,40.0,38.2,30.13,North,0,0.0,0.0,94,-99.99,,,-99.99,PWS SA v1.10,2013-01-12 10:30:00,
2013-01-12 05:35:00,39.9,38.1,30.13,North,0,0.0,0.0,94,-99.99,,,-99.99,PWS SA v1.10,2013-01-12 10:35:00,
2013-01-12 05:40:00,39.9,38.2,30.12,North,0,0.0,0.0,94,-99.99,,,-99.99,PWS SA v1.10,2013-01-12 10:40:00,
2013-01-12 05:45:00,40.0,38.0,30.11,North,0,0.0,0.0,94,-99.99,,,-99.99,PWS SA v1.10,2013-01-12 10:45:00,
2013-01-12 05:50:00,39.9,37.9,30.12,North,0,0.0,0.0,94,-99.99,,,-99.99,PWS SA v1.10,2013-01-12 10:50:00,
2013-01-12 05:55:00,39.9,38.2,30.11,North,0,0.0,0.0,94,-99.99,,,-99.99,PWS SA v1.10,2013-01-12 10:55:00,
2013-01-12 06:00:00,39.9,37.8,30.11,North,0,0.0,0.0,94,-99.99,,,-99.99,PWS SA v1.10,2013-01-12 11:00:00,
2013-01-12 06:05:00,40.0,38.1,30.11,North,0,0.0,0.0,94,-99.99,,,-99.99,PWS SA v1.10,2013-01-12 11:05:00,
2013-01-12 06:10:00,39.9,38.0,30.10,North,0,0.0,0.0,94,-99.99,,,-99.99,PWS SA v1.10,2013-01-12 11:10:00,
2013-01-12 06:15:00,39.9,37.9,30.10,North,0,0.0,0.0,94,-99.99,,,-99.99,PWS SA v1.10,2013-01-12 11:15:00,
2013-01-12 06:20:00,39.9,38.1,30.10,North,0,0.0,0.0,94,-99.99,,,-99.99,PWS SA v1.10,2013-01-12 11:20:00,
2013-01-12 06:25:00,39.9,38.2,30.10,North,0,0.0,0.0,95,-99.99,,,-99.99,PWS SA v1.10,2013-01-12 11:25:00,
2013-01-12 06:30:00,39.9,38.3,30.11,North,0,0.0,0.0,95,-99.99,,,-99.99,PWS SA v1.10,2013-01-12 11:30:00,
2013-01-12 06:35:00,39.9,38.1,30.11,North,0,0.0,0.0,95,-99.99,,,-99.99,PWS SA v1.10,2013-01-12 11:35:00,
2013-01-12 06:40:00,39.9,38.2,30.10,North,0,0.0,0.0,94,-99.99,,,-99.99,PWS SA v1.10,2013-01-12 11:40:00,
2013-01-12 06:50:00,40.1,38.3,30.12,North,0,0.0,0.0,95,-99.99,,,-99.99,PWS SA v1.10,2013-01-12 11:50:00,
2013-01-12 07:00:00,40.2,38.7,30.12,North,0,0.0,0.0,96,-99.99,,,-99.99,PWS SA v1.10,2013-01-12 12:00:00,
2013-01-12 07:05:00,40.2,38.4,30.12,North,0,0.0,0.0,95,-99.99,,,-99.99,PWS SA v1.10,2013-01-12 12:05:00,
2013-01-12 07:10:00,40.2,38.4,30.12,North,0,0.0,0.0,95,-99.99,,,-99.99,PWS SA v1.10,2013-01-12 12:10:00,
2013-01-12 07:15:00,40.2,38.4,30.12,North,0,0.0,0.0,95,-99.99,,,-99.99,PWS SA v1.10,2013-01-12 12:15:00,
2013-01-12 07:20:00,40.2,38.4,30.12,North,0,0.0,0.0,95,-99.99,,,-99.99,PWS SA v1.10,2013-01-12 12:20:00,
2013-01-12 07:25:00,40.3,38.6,30.13,North,0,0.0,0.0,95,-99.99,,,-99.99,PWS SA v1.10,2013-01-12 12:25:00,
2013-01-12 07:30:00,40.2,38.8,30.14,North,0,0.0,0.0,95,-99.99,,,-99.99,PWS SA v1.10,2013-01-12 12:30:00,
2013-01-12 07:35:00,40.3,38.6,30.14,North,0,0.0,0.0,95,-99.99,,,-99.99,PWS SA v1.10,2013-01-12 12:35:00,
2013-01-12 07:40:00,40.4,38.9,30.15,North,0,0.0,0.0,95,-99.99,,,-99.99,PWS SA v1.10,2013-01-12 12:40:00,
2013-01-12 07:50:00,40.3,38.7,30.14,North,0,0.0,0.0,94,-99.99,,,-99.99,PWS SA v1.10,2013-01-12 12:50:00,
2013-01-12 07:55:00,40.4,38.8,30.14,North,0,0.0,0.0,94,-99.99,,,-99.99,PWS SA v1.10,2013-01-12 12:55:00,
2013-01-12 08:00:00,40.5,38.9,30.14,North,0,0.0,0.0,95,-99.99,,,-99.99,PWS SA v1.10,2013-01-12 13:00:00,
2013-01-12 08:05:00,40.7,39.1,30.14,North,0,0.0,0.0,95,-99.99,,,-99.99,PWS SA v1.10,2013-01-12 13:05:00,
2013-01-12 08:10:00,40.6,39.1,30.13,North,0,0.0,0.0,95,-99.99,,,-99.99,PWS SA v1.10,2013-01-12 13:10:00,
2013-01-12 08:15:00,40.7,39.1,30.13,North,0,0.0,0.0,95,-99.99,,,-99.99,PWS SA v1.10,2013-01-12 13:15:00,
2013-01-12 08:20:00,40.8,39.1,30.13,North,0,0.0,0.0,95,-99.99,,,-99.99,PWS SA v1.10,2013-01-12 13:20:00,
2013-01-12 08:25:00,41.0,39.4,30.13,North,0,0.0,0.0,95,-99.99,,,-99.99,PWS SA v1.10,2013-01-12 13:25:00,
2013-01-12 08:30:00,41.1,39.3,30.13,North,0,0.0,0.0,95,-99.99,,,-99.99,PWS SA v1.10,2013-01-12 13:30:00,
2013-01-12 08:35:00,41.2,39.5,30.13,North,0,0.0,0.0,95,-99.99,,,-99.99,PWS SA v1.10,2013-01-12 13:35:00,
2013-01-12 08:40:00,41.3,39.9,30.13,North,0,0.0,0.0,96,-99.99,,,-99.99,PWS SA v1.10,2013-01-12 13:40:00,
2013-01-12 08:45:00,41.5,40.1,30.14,North,0,0.0,0.0,96,-99.99,,,-99.99,PWS SA v1.10,2013-01-12 13:45:00,
2013-01-12 08:50:00,41.6,40.3,30.14,North,0,0.0,0.0,96,-99.99,,,-99.99,PWS SA v1.10,2013-01-12 13:50:00,
2013-01-12 08:55:00,41.9,40.5,30.15,North,0,0.0,0.0,96,-99.99,,,-99.99,PWS SA v1.10,2013-01-12 13:55:00,
2013-01-12 09:00:00,42.1,40.5,30.15,North,0,0.0,0.0,95,-99.99,,,-99.99,PWS SA v1.10,2013-01-12 14:00:00,
2013-01-12 09:05:00,42.4,40.8,30.15,North,0,0.0,0.0,95,-99.99,,,-99.99,PWS SA v1.10,2013-01-12 14:05:00,
2013-01-12 09:10:00,42.3,40.8,30.14,North,0,0.0,0.0,95,-99.99,,,-99.99,PWS SA v1.10,2013-01-12 14:10:00,
2013-01-12 09:15:00,42.7,41.0,30.14,North,0,0.0,0.0,95,-99.99,,,-99.99,PWS SA v1.10,2013-01-12 14:15:00,
2013-01-12 09:20:00,42.8,41.0,30.14,North,0,0.0,0.0,95,-99.99,,,-99.99,PWS SA v1.10,2013-01-12 14:20:00,
2013-01-12 09:25:00,43.4,41.7,30.15,North,0,0.0,0.0,95,-99.99,,,-99.99,PWS SA v1.10,2013-01-12 14:25:00,
2013-01-12 09:30:00,43.3,41.6,30.15,North,0,0.0,0.0,95,-99.99,,,-99.99,PWS SA v1.10,2013-01-12 14:30:00,
2013-01-12 09:35:00,43.5,41.9,30.14,North,0,0.0,0.0,95,-99.99,,,-99.99,PWS SA v1.10,2013-01-12 14:35:00,
2013-01-12 09:45:00,43.6,41.8,30.15,North,0,0.0,0.0,95,-99.99,,,-99.99,PWS SA v1.10,2013-01-12 14:45:00,
2013-01-12 09:50:00,43.7,42.0,30.15,North,0,0.0,0.0,95,-99.99,,,-99.99,PWS SA v1.10,2013-01-12 14:50:00,
2013-01-12 09:55:00,44.0,42.0,30.15,North,0,0.0,0.0,94,-99.99,,,-99.99,PWS SA v1.10,2013-01-12 14:55:00,
2013-01-12 10:00:00,43.9,41.9,30.15,North,0,0.0,0.0,94,-99.99,,,-99.99,PWS SA v1.10,2013-01-12 15:00:00,
2013-01-12 10:05:00,43.8,42.0,30.15,North,0,0.0,0.0,94,-99.99,,,-99.99,PWS SA v1.10,2013-01-12 15:05:00,
2013-01-12 10:10:00,44.2,42.2,30.14,North,0,0.0,0.0,94,-99.99,,,-99.99,PWS SA v1.10,2013-01-12 15:10:00,
2013-01-12 10:15:00,44.1,42.0,30.14,North,0,0.0,0.0,93,-99.99,,,-99.99,PWS SA v1.10,2013-01-12 15:15:00,
2013-01-12 10:20:00,44.2,42.0,30.15,North,0,0.0,0.0,93,-99.99,,,-99.99,PWS SA v1.10,2013-01-12 15:20:00,
2013-01-12 10:25:00,44.1,42.3,30.15,North,0,0.0,0.0,93,-99.99,,,-99.99,PWS SA v1.10,2013-01-12 15:25:00,
2013-01-12 10:30:00,44.2,42.1,30.14,North,0,0.0,0.0,93,-99.99,,,-99.99,PWS SA v1.10,2013-01-12 15:30:00,
2013-01-12 10:35:00,43.9,41.7,30.15,North,0,0.0,0.0,93,-99.99,,,-99.99,PWS SA v1.10,2013-01-12 15:35:00,
2013-01-12 10:40:00,44.2,41.9,30.14,North,0,0.0,0.0,93,-99.99,,,-99.99,PWS SA v1.10,2013-01-12 15:40:00,
2013-01-12 10:45:00,44.0,42.0,30.14,North,0,0.0,0.0,94,-99.99,,,-99.99,PWS SA v1.10,2013-01-12 15:45:00,
2013-01-12 10:50:00,44.3,42.3,30.14,North,0,0.0,0.0,93,-99.99,,,-99.99,PWS SA v1.10,2013-01-12 15:50:00,
2013-01-12 10:55:00,44.3,42.0,30.13,North,0,0.0,0.0,93,-99.99,,,-99.99,PWS SA v1.10,2013-01-12 15:55:00,
2013-01-12 11:00:00,44.0,42.1,30.13,North,0,0.0,0.0,93,-99.99,,,-99.99,PWS SA v1.10,2013-01-12 16:00:00,
2013-01-12 11:05:00,44.1,42.2,30.14,North,0,0.0,0.0,93,-99.99,,,-99.99,PWS SA v1.10,2013-01-12 16:05:00,
2013-01-12 11:10:00,44.0,41.9,30.14,North,0,0.0,0.0,93,-99.99,,,-99.99,PWS SA v1.10,2013-01-12 16:10:00,
2013-01-12 11:15:00,43.6,42.0,30.11,ESE,112,1.7,1.7,93,-99.99,,,-99.99,PWS SA v1.10,2013-01-12 16:15:00,
2013-01-12 11:20:00,44.3,42.1,30.11,North,0,0.0,1.0,93,-99.99,,,-99.99,PWS SA v1.10,2013-01-12 16:20:00,
2013-01-12 11:25:00,44.2,42.5,30.11,North,0,0.0,1.0,93,-99.99,,,-99.99,PWS SA v1.10,2013-01-12 16:25:00,
2013-01-12 11:30:00,44.0,42.5,30.12,North,0,0.0,0.0,94,-99.99,,,-99.99,PWS SA v1.10,2013-01-12 16:30:00,
2013-01-12 11:35:00,44.6,42.7,30.11,North,0,0.0,0.0,94,-99.99,,,-99.99,PWS SA v1.10,2013-01-12 16:35:00,
2013-01-12 11:40:00,44.3,42.5,30.11,NE,48,1.7,1.7,93,-99.99,,,-99.99,PWS SA v1.10,2013-01-12 16:40:00,
2013-01-12 11:45:00,44.4,42.5,30.10,North,0,0.0,1.0,93,-99.99,,,-99.99,PWS SA v1.10,2013-01-12 16:45:00,
2013-01-12 11:50:00,44.8,42.7,30.10,North,0,0.0,1.0,93,-99.99,,,-99.99,PWS SA v1.10,2013-01-12 16:50:00,
2013-01-12 11:55:00,44.7,42.6,30.10,North,0,0.0,1.0,93,-99.99,,,-99.99,PWS SA v1.10,2013-01-12 16:55:00,
2013-01-12 12:00:00,44.9,42.7,30.09,North,0,0.0,0.0,93,-99.99,,,-99.99,PWS SA v1.10,2013-01-12 17:00:00,
2013-01-12 12:05:00,45.0,42.9,30.08,North,0,0.0,1.0,93,-99.99,,,-99.99,PWS SA v1.10,2013-01-12 17:05:00,
2013-01-12 12:10:00,44.6,42.7,30.09,North,0,0.0,1.0,93,-99.99,,,-99.99,PWS SA v1.10,2013-01-12 17:10:00,
2013-01-12 12:15:00,44.9,43.0,30.09,North,0,0.0,1.0,93,-99.99,,,-99.99,PWS SA v1.10,2013-01-12 17:15:00,
2013-01-12 12:20:00,44.7,42.9,30.08,SE,140,1.7,1.7,93,-99.99,,,-99.99,PWS SA v1.10,2013-01-12 17:20:00,
2013-01-12 12:25:00,45.3,43.3,30.09,North,0,0.0,1.0,93,-99.99,,,-99.99,PWS SA v1.10,2013-01-12 17:25:00,
2013-01-12 12:30:00,45.3,43.1,30.09,North,0,0.0,1.0,93,-99.99,,,-99.99,PWS SA v1.10,2013-01-12 17:30:00,
2013-01-12 12:35:00,45.3,43.3,30.09,North,0,0.0,1.0,93,-99.99,,,-99.99,PWS SA v1.10,2013-01-12 17:35:00,
2013-01-12 12:40:00,45.2,43.2,30.08,North,0,0.0,1.0,93,-99.99,,,-99.99,PWS SA v1.10,2013-01-12 17:40:00,
2013-01-12 12:45:00,45.2,43.3,30.08,North,0,0.0,1.0,93,-99.99,,,-99.99,PWS SA v1.10,2013-01-12 17:45:00,
2013-01-12 12:50:00,45.5,43.5,30.08,North,0,0.0,0.0,93,-99.99,,,-99.99,PWS SA v1.10,2013-01-12 17:50:00,
2013-01-12 12:55:00,45.7,43.6,30.08,North,0,0.0,0.0,93,-99.99,,,-99.99,PWS SA v1.10,2013-01-12 17:55:00,
2013-01-12 13:00:00,45.8,43.5,30.09,North,0,0.0,0.0,93,-99.99,,,-99.99,PWS SA v1.10,2013-01-12 18:00:00,
2013-01-12 13:05:00,46.0,43.5,30.09,North,0,0.0,0.0,93,-99.99,,,-99.99,PWS SA v1.10,2013-01-12 18:05:00,
2013-01-12 13:10:00,46.0,43.8,30.09,North,0,0.0,0.0,93,-99.99,,,-99.99,PWS SA v1.10,2013-01-12 18:10:00,
2013-01-12 13:15:00,45.8,43.8,30.10,North,0,0.0,0.0,93,-99.99,,,-99.99,PWS SA v1.10,2013-01-12 18:15:00,
2013-01-12 13:20:00,46.0,43.7,30.09,North,0,0.0,0.0,93,-99.99,,,-99.99,PWS SA v1.10,2013-01-12 18:20:00,
2013-01-12 13:25:00,46.1,43.6,30.09,North,0,0.0,0.0,93,-99.99,,,-99.99,PWS SA v1.10,2013-01-12 18:25:00,
2013-01-12 13:30:00,46.1,43.6,30.10,North,0,0.0,0.0,93,-99.99,,,-99.99,PWS SA v1.10,2013-01-12 18:30:00,
2013-01-12 13:35:00,46.0,43.8,30.10,North,0,0.0,0.0,93,-99.99,,,-99.99,PWS SA v1.10,2013-01-12 18:35:00,
2013-01-12 13:40:00,45.9,43.7,30.10,North,0,0.0,0.0,92,-99.99,,,-99.99,PWS SA v1.10,2013-01-12 18:40:00,
2013-01-12 13:45:00,46.0,43.7,30.11,North,0,0.0,0.0,93,-99.99,,,-99.99,PWS SA v1.10,2013-01-12 18:45:00,
2013-01-12 13:50:00,46.0,43.8,30.11,North,0,0.0,0.0,93,-99.99,,,-99.99,PWS SA v1.10,2013-01-12 18:50:00,
2013-01-12 13:55:00,46.1,43.6,30.11,North,0,0.0,0.0,93,-99.99,,,-99.99,PWS SA v1.10,2013-01-12 18:55:00,
2013-01-12 14:00:00,46.2,43.9,30.11,North,0,0.0,0.0,93,-99.99,,,-99.99,PWS SA v1.10,2013-01-12 19:00:00,
2013-01-12 14:05:00,46.2,43.9,30.12,North,0,0.0,0.0,93,-99.99,,,-99.99,PWS SA v1.10,2013-01-12 19:05:00,
2013-01-12 14:10:00,46.3,43.9,30.11,North,0,0.0,0.0,93,-99.99,,,-99.99,PWS SA v1.10,2013-01-12 19:10:00,
2013-01-12 14:15:00,46.2,44.1,30.10,North,0,0.0,0.0,93,-99.99,,,-99.99,PWS SA v1.10,2013-01-12 19:15:00,
2013-01-12 14:20:00,46.3,44.2,30.10,North,0,0.0,0.0,93,-99.99,,,-99.99,PWS SA v1.10,2013-01-12 19:20:00,
2013-01-12 14:25:00,46.1,44.0,30.10,North,0,0.0,0.0,93,-99.99,,,-99.99,PWS SA v1.10,2013-01-12 19:25:00,
2013-01-12 14:30:00,46.2,44.0,30.11,North,0,0.0,0.0,93,-99.99,,,-99.99,PWS SA v1.10,2013-01-12 19:30:00,
2013-01-12 14:35:00,46.2,44.2,30.11,North,0,0.0,0.0,93,-99.99,,,-99.99,PWS SA v1.10,2013-01-12 19:35:00,
2013-01-12 14:40:00,46.3,44.0,30.11,North,0,0.0,0.0,93,-99.99,,,-99.99,PWS SA v1.10,2013-01-12 19:40:00,
2013-01-12 14:45:00,46.4,44.1,30.11,North,0,0.0,0.0,93,-99.99,,,-99.99,PWS SA v1.10,2013-01-12 19:45:00,
2013-01-12 14:50:00,46.4,44.1,30.10,North,0,0.0,0.0,93,-99.99,,,-99.99,PWS SA v1.10,2013-01-12 19:50:00,
2013-01-12 15:00:00,46.4,44.3,30.11,North,0,0.0,0.0,93,-99.99,,,-99.99,PWS SA v1.10,2013-01-12 20:00:00,
2013-01-12 15:05:00,46.4,43.9,30.11,North,0,0.0,0.0,93,-99.99,,,-99.99,PWS SA v1.10,2013-01-12 20:05:00,
2013-01-12 15:15:00,46.4,44.4,30.11,North,0,0.0,0.0,93,-99.99,,,-99.99,PWS SA v1.10,2013-01-12 20:15:00,
2013-01-12 15:20:00,46.5,44.3,30.11,North,0,0.0,0.0,93,-99.99,,,-99.99,PWS SA v1.10,2013-01-12 20:20:00,
2013-01-12 15:25:00,46.2,44.0,30.11,North,0,0.0,0.0,93,-99.99,,,-99.99,PWS SA v1.10,2013-01-12 20:25:00,
2013-01-12 15:30:00,46.3,44.3,30.11,North,0,0.0,0.0,93,-99.99,,,-99.99,PWS SA v1.10,2013-01-12 20:30:00,
2013-01-12 15:35:00,46.2,44.1,30.12,North,0,0.0,0.0,93,-99.99,,,-99.99,PWS SA v1.10,2013-01-12 20:35:00,
2013-01-12 15:45:00,46.1,43.9,30.11,North,0,0.0,0.0,93,-99.99,,,-99.99,PWS SA v1.10,2013-01-12 20:45:00,
2013-01-12 15:55:00,46.0,43.6,30.11,North,0,0.0,0.0,93,-99.99,,,-99.99,PWS SA v1.10,2013-01-12 20:55:00,
2013-01-12 16:00:00,45.8,43.7,30.11,North,0,0.0,0.0,94,-99.99,,,-99.99,PWS SA v1.10,2013-01-12 21:00:00,
2013-01-12 16:05:00,45.7,43.8,30.11,North,0,0.0,0.0,94,-99.99,,,-99.99,PWS SA v1.10,2013-01-12 21:05:00,
2013-01-12 16:15:00,45.4,43.4,30.11,North,0,0.0,0.0,94,-99.99,,,-99.99,PWS SA v1.10,2013-01-12 21:15:00,
2013-01-12 16:20:00,45.4,43.4,30.11,North,0,0.0,0.0,94,-99.99,,,-99.99,PWS SA v1.10,2013-01-12 21:20:00,
2013-01-12 16:25:00,45.4,43.4,30.11,North,0,0.0,0.0,94,-99.99,,,-99.99,PWS SA v1.10,2013-01-12 21:25:00,
2013-01-12 16:30:00,45.4,43.4,30.11,North,0,0.0,0.0,94,-99.99,,,-99.99,PWS SA v1.10,2013-01-12 21:30:00,
2013-01-12 16:35:00,45.3,43.2,30.11,North,0,0.0,0.0,94,-99.99,,,-99.99,PWS SA v1.10,2013-01-12 21:35:00,
2013-01-12 16:40:00,45.3,43.5,30.10,North,0,0.0,0.0,95,-99.99,,,-99.99,PWS SA v1.10,2013-01-12 21:40:00,
2013-01-12 16:45:00,45.2,43.4,30.10,North,0,0.0,0.0,95,-99.99,,,-99.99,PWS SA v1.10,2013-01-12 21:45:00,
2013-01-12 16:50:00,45.1,43.4,30.10,North,0,0.0,0.0,95,-99.99,,,-99.99,PWS SA v1.10,2013-01-12 21:50:00,
2013-01-12 16:55:00,45.0,43.3,30.10,North,0,0.0,0.0,95,-99.99,,,-99.99,PWS SA v1.10,2013-01-12 21:55:00,
2013-01-12 17:00:00,45.0,43.2,30.10,North,0,0.0,0.0,94,-99.99,,,-99.99,PWS SA v1.10,2013-01-12 22:00:00,
2013-01-12 17:05:00,44.9,43.0,30.11,North,0,0.0,0.0,94,-99.99,,,-99.99,PWS SA v1.10,2013-01-12 22:05:00,
2013-01-12 17:10:00,44.8,42.9,30.11,North,0,0.0,0.0,94,-99.99,,,-99.99,PWS SA v1.10,2013-01-12 22:10:00,
2013-01-12 17:15:00,44.7,43.0,30.11,North,0,0.0,0.0,95,-99.99,,,-99.99,PWS SA v1.10,2013-01-12 22:15:00,
2013-01-12 17:20:00,44.8,43.1,30.11,North,0,0.0,0.0,95,-99.99,,,-99.99,PWS SA v1.10,2013-01-12 22:20:00,
2013-01-12 17:25:00,44.8,43.0,30.11,North,0,0.0,0.0,95,-99.99,,,-99.99,PWS SA v1.10,2013-01-12 22:25:00,
2013-01-12 17:30:00,44.8,43.3,30.11,North,0,0.0,0.0,95,-99.99,,,-99.99,PWS SA v1.10,2013-01-12 22:30:00,
2013-01-12 17:35:00,44.7,43.0,30.12,North,0,0.0,0.0,95,-99.99,,,-99.99,PWS SA v1.10,2013-01-12 22:35:00,
2013-01-12 17:40:00,44.7,43.0,30.12,North,0,0.0,0.0,95,-99.99,,,-99.99,PWS SA v1.10,2013-01-12 22:40:00,
2013-01-12 17:45:00,44.5,42.9,30.11,North,0,0.0,0.0,95,-99.99,,,-99.99,PWS SA v1.10,2013-01-12 22:45:00,
2013-01-12 17:55:00,44.6,43.0,30.11,North,0,0.0,0.0,95,-99.99,,,-99.99,PWS SA v1.10,2013-01-12 22:55:00,
2013-01-12 18:05:00,44.6,43.0,30.11,North,0,0.0,0.0,95,-99.99,,,-99.99,PWS SA v1.10,2013-01-12 23:05:00,
2013-01-12 18:10:00,44.5,42.8,30.12,North,0,0.0,0.0,95,-99.99,,,-99.99,PWS SA v1.10,2013-01-12 23:10:00,
2013-01-12 18:15:00,44.5,42.8,30.12,North,0,0.0,0.0,95,-99.99,,,-99.99,PWS SA v1.10,2013-01-12 23:15:00,
2013-01-12 18:25:00,44.5,42.8,30.12,North,0,0.0,0.0,95,-99.99,,,-99.99,PWS SA v1.10,2013-01-12 23:25:00,
2013-01-12 18:35:00,44.2,42.6,30.10,North,0,0.0,0.0,94,-99.99,,,-99.99,PWS SA v1.10,2013-01-12 23:35:00,
2013-01-12 18:40:00,44.2,42.6,30.10,North,0,0.0,0.0,95,-99.99,,,-99.99,PWS SA v1.10,2013-01-12 23:40:00,
2013-01-12 18:50:00,44.1,42.4,30.09,North,0,0.0,0.0,95,-99.99,,,-99.99,PWS SA v1.10,2013-01-12 23:50:00,
2013-01-12 18:55:00,44.2,42.4,30.10,North,0,0.0,0.0,95,-99.99,,,-99.99,PWS SA v1.10,2013-01-12 23:55:00,
2013-01-12 19:00:00,44.2,42.5,30.10,North,0,0.0,0.0,95,-99.99,,,-99.99,PWS SA v1.10,2013-01-13 00:00:00,
2013-01-12 19:05:00,44.1,42.4,30.10,North,0,0.0,0.0,95,-99.99,,,-99.99,PWS SA v1.10,2013-01-13 00:05:00,
2013-01-12 19:15:00,44.0,42.4,30.10,North,0,0.0,0.0,95,-99.99,,,-99.99,PWS SA v1.10,2013-01-13 00:15:00,
2013-01-12 19:20:00,44.0,42.3,30.09,North,0,0.0,0.0,95,-99.99,,,-99.99,PWS SA v1.10,2013-01-13 00:20:00,
2013-01-12 19:25:00,44.0,42.1,30.09,North,0,0.0,0.0,95,-99.99,,,-99.99,PWS SA v1.10,2013-01-13 00:25:00,
2013-01-12 19:35:00,43.9,42.0,30.10,North,0,0.0,0.0,95,-99.99,,,-99.99,PWS SA v1.10,2013-01-13 00:35:00,
2013-01-12 19:40:00,43.8,42.2,30.10,North,0,0.0,0.0,95,-99.99,,,-99.99,PWS SA v1.10,2013-01-13 00:40:00,
2013-01-12 19:50:00,43.9,42.3,30.09,North,0,0.0,0.0,95,-99.99,,,-99.99,PWS SA v1.10,2013-01-13 00:50:00,
2013-01-12 19:55:00,43.9,42.3,30.09,North,0,0.0,0.0,95,-99.99,,,-99.99,PWS SA v1.10,2013-01-13 00:55:00,
2013-01-12 20:00:00,43.8,42.3,30.10,North,0,0.0,0.0,95,-99.99,,,-99.99,PWS SA v1.10,2013-01-13 01:00:00,
2013-01-12 20:05:00,43.8,42.5,30.10,North,0,0.0,0.0,95,-99.99,,,-99.99,PWS SA v1.10,2013-01-13 01:05:00,
2013-01-12 20:10:00,43.9,42.1,30.10,North,0,0.0,0.0,95,-99.99,,,-99.99,PWS SA v1.10,2013-01-13 01:10:00,
2013-01-12 20:15:00,43.9,42.3,30.10,North,0,0.0,0.0,95,-99.99,,,-99.99,PWS SA v1.10,2013-01-13 01:15:00,
2013-01-12 20:20:00,43.9,42.0,30.09,North,0,0.0,0.0,94,-99.99,,,-99.99,PWS SA v1.10,2013-01-13 01:20:00,
2013-01-12 20:25:00,43.8,42.0,30.10,North,0,0.0,0.0,94,-99.99,,,-99.99,PWS SA v1.10,2013-01-13 01:25:00,
2013-01-12 20:35:00,43.7,42.0,30.10,North,0,0.0,0.0,95,-99.99,,,-99.99,PWS SA v1.10,2013-01-13 01:35:00,
2013-01-12 20:40:00,43.7,42.1,30.11,North,0,0.0,0.0,95,-99.99,,,-99.99,PWS SA v1.10,2013-01-13 01:40:00,
2013-01-12 20:50:00,43.6,42.1,30.11,North,0,0.0,0.0,95,-99.99,,,-99.99,PWS SA v1.10,2013-01-13 01:50:00,
2013-01-12 21:00:00,43.6,41.9,30.11,North,0,0.0,0.0,95,-99.99,,,-99.99,PWS SA v1.10,2013-01-13 02:00:00,
2013-01-12 21:05:00,43.6,42.0,30.11,North,0,0.0,0.0,95,-99.99,,,-99.99,PWS SA v1.10,2013-01-13 02:05:00,
2013-01-12 21:10:00,43.6,41.9,30.10,North,0,0.0,0.0,95,-99.99,,,-99.99,PWS SA v1.10,2013-01-13 02:10:00,
2013-01-12 21:15:00,43.6,42.2,30.09,North,0,0.0,0.0,95,-99.99,,,-99.99,PWS SA v1.10,2013-01-13 02:15:00,
2013-01-12 21:20:00,43.5,42.1,30.09,North,0,0.0,0.0,95,-99.99,,,-99.99,PWS SA v1.10,2013-01-13 02:20:00,
2013-01-12 21:25:00,43.5,41.9,30.09,North,0,0.0,0.0,95,-99.99,,,-99.99,PWS SA v1.10,2013-01-13 02:25:00,
2013-01-12 21:35:00,43.6,42.0,30.09,North,0,0.0,0.0,95,-99.99,,,-99.99,PWS SA v1.10,2013-01-13 02:35:00,
2013-01-12 21:40:00,43.6,42.1,30.09,North,0,0.0,0.0,95,-99.99,,,-99.99,PWS SA v1.10,2013-01-13 02:40:00,
2013-01-12 21:50:00,43.6,41.8,30.10,North,0,0.0,0.0,95,-99.99,,,-99.99,PWS SA v1.10,2013-01-13 02:50:00,
2013-01-12 22:00:00,43.6,42.0,30.09,North,0,0.0,0.0,95,-99.99,,,-99.99,PWS SA v1.10,2013-01-13 03:00:00,
2013-01-12 22:05:00,43.6,41.9,30.09,North,0,0.0,0.0,95,-99.99,,,-99.99,PWS SA v1.10,2013-01-13 03:05:00,
2013-01-12 22:10:00,43.6,42.0,30.09,North,0,0.0,0.0,95,-99.99,,,-99.99,PWS SA v1.10,2013-01-13 03:10:00,
2013-01-12 22:15:00,43.6,42.0,30.09,North,0,0.0,0.0,95,-99.99,,,-99.99,PWS SA v1.10,2013-01-13 03:15:00,
2013-01-12 22:20:00,43.5,42.1,30.08,North,0,0.0,0.0,95,-99.99,,,-99.99,PWS SA v1.10,2013-01-13 03:20:00,
2013-01-12 22:25:00,43.5,41.8,30.08,North,0,0.0,0.0,95,-99.99,,,-99.99,PWS SA v1.10,2013-01-13 03:25:00,
2013-01-12 22:30:00,43.4,42.0,30.08,North,0,0.0,0.0,95,-99.99,,,-99.99,PWS SA v1.10,2013-01-13 03:30:00,
2013-01-12 22:40:00,43.5,41.9,30.09,North,0,0.0,0.0,95,-99.99,,,-99.99,PWS SA v1.10,2013-01-13 03:40:00,
2013-01-12 22:45:00,43.5,41.7,30.09,North,0,0.0,0.0,95,-99.99,,,-99.99,PWS SA v1.10,2013-01-13 03:45:00,
2013-01-12 22:50:00,43.5,41.9,30.08,North,0,0.0,0.0,95,-99.99,,,-99.99,PWS SA v1.10,2013-01-13 03:50:00,
2013-01-12 22:55:00,43.5,41.9,30.08,North,0,0.0,0.0,95,-99.99,,,-99.99,PWS SA v1.10,2013-01-13 03:55:00,
2013-01-12 23:00:00,43.5,41.9,30.08,North,0,0.0,0.0,95,-99.99,,,-99.99,PWS SA v1.10,2013-01-13 04:00:00,
2013-01-12 23:05:00,43.5,41.9,30.08,North,0,0.0,0.0,95,-99.99,,,-99.99,PWS SA v1.10,2013-01-13 04:05:00,
2013-01-12 23:10:00,43.6,41.9,30.08,North,0,0.0,0.0,95,-99.99,,,-99.99,PWS SA v1.10,2013-01-13 04:10:00,
2013-01-12 23:15:00,43.6,42.0,30.09,North,0,0.0,0.0,95,-99.99,,,-99.99,PWS SA v1.10,2013-01-13 04:15:00,
2013-01-12 23:20:00,43.6,41.9,30.09,North,0,0.0,0.0,95,-99.99,,,-99.99,PWS SA v1.10,2013-01-13 04:20:00,
2013-01-12 23:25:00,43.6,41.9,30.09,North,0,0.0,0.0,95,-99.99,,,-99.99,PWS SA v1.10,2013-01-13 04:25:00,
2013-01-12 23:30:00,43.6,42.0,30.09,North,0,0.0,0.0,95,-99.99,,,-99.99,PWS SA v1.10,2013-01-13 04:30:00,
2013-01-12 23:35:00,43.6,42.0,30.09,North,0,0.0,0.0,95,-99.99,,,-99.99,PWS SA v1.10,2013-01-13 04:35:00,
2013-01-12 23:40:00,43.6,42.1,30.09,North,0,0.0,0.0,95,-99.99,,,-99.99,PWS SA v1.10,2013-01-13 04:40:00,
2013-01-12 23:45:00,43.6,42.1,30.09,North,0,0.0,0.0,95,-99.99,,,-99.99,PWS SA v1.10,2013-01-13 04:45:00,
2013-01-12 23:50:00,43.7,42.1,30.09,North,0,0.0,0.0,95,-99.99,,,-99.99,PWS SA v1.10,2013-01-13 04:50:00,
2013-01-12 23:55:00,43.7,42.1,30.09,North,0,0.0,0.0,95,-99.99,,,-99.99,PWS SA v1.10,2013-01-13 04:55:00,